Date String (YYYY-MM-DD hh:mm:ss) UTC,Instrument flags,absolute air pressure of the measurement (hPa),sample flow rate (lpm),inlet stack bypass flow (lpm),air temperature of the measurement (°C),ambient temperature measured by the external sensor (°C),aerosol sample conditioner tube jacket temperature (°C),OPC LED temperature (°C),internal box temperature (°C),relative humidity of the measurement (%),span deviation,mass concentration of particles derived from Lorenz-Mie calculation of OPC scattering (μg/m³),mass concentration of particles derived from Lorenz-Mie calculation of OPC scattering (μg/m³),mass concentration of particles derived from Lorenz-Mie calculation of OPC scattering (μg/m³)
DateTimeUTC,F1_M11,P_M11,Q1_M11,Q2_M11,T1_M11,T2_M11,T3_M11,T4_M11,T5_M11,U1_M11,ZSPAN_M11,X0_M11,X2_M11,X1_M11
2024-06-05 21:00:00,SystemResetWarning,0827.6,4.99,000.00,028.5,026.2,000.0,037.3,029.6,015.7,0000.0,0004.39,0001.24,0000.64
2024-06-05 21:01:00,SystemResetWarning,0827.6,5.00,000.00,028.6,026.7,000.0,037.2,029.9,015.7,0000.0,0004.46,0001.26,0000.64
2024-06-05 21:02:00,SystemResetWarning,0827.7,5.01,000.00,028.6,027.1,000.0,037.1,030.2,015.8,0000.0,0005.80,0001.25,0000.64
2024-06-05 21:03:00,SystemResetWarning,0827.7,5.01,000.00,028.7,027.5,000.0,037.1,030.4,016.0,0000.0,0007.41,0001.28,0000.63
2024-06-05 21:04:00,SystemResetWarning,0827.7,5.00,000.00,028.8,027.9,000.0,037.1,030.5,014.9,0000.0,0007.59,0001.31,0000.64
2024-06-05 21:05:00,SystemResetWarning,0827.7,4.99,000.00,028.9,028.2,000.0,037.1,030.7,015.8,0000.0,0007.59,0001.35,0000.65
2024-06-05 21:06:00,SystemResetWarning,0827.7,4.99,000.00,028.9,028.4,000.0,037.1,030.8,015.4,0000.0,0007.53,0001.34,0000.65
2024-06-05 21:07:00,SystemResetWarning,0827.7,5.00,000.00,029.0,028.6,000.0,037.1,030.9,015.3,0000.0,0007.32,0001.35,0000.67
2024-06-05 21:08:00,SystemResetWarning,0827.7,5.01,000.00,029.1,028.8,000.0,037.2,031.0,014.5,0000.0,0007.19,0001.38,0000.68
2024-06-05 21:09:00,SystemResetWarning,0827.7,4.99,000.00,029.1,028.0,000.0,037.3,030.6,015.5,0000.0,0006.79,0001.37,0000.68
2024-06-05 21:10:00,SystemResetWarning,0827.5,5.01,000.00,028.8,025.9,000.0,037.3,029.6,016.4,0000.0,0006.24,0001.32,0000.68
2024-06-05 21:11:00,SystemResetWarning,0827.5,5.01,000.00,028.5,025.7,000.0,037.3,029.5,016.1,0000.0,0006.12,0001.30,0000.69
2024-06-05 21:12:00,SystemResetWarning,0827.6,4.99,000.00,028.5,026.3,000.0,037.2,029.7,016.4,0000.0,0006.01,0001.26,0000.68
2024-06-05 21:13:00,SystemResetWarning,0827.6,4.99,000.00,028.5,026.7,000.0,037.1,030.0,017.3,0000.0,0004.65,0001.23,0000.67
2024-06-05 21:14:00,SystemResetWarning,0827.6,5.00,000.00,028.6,027.1,000.0,037.0,030.2,017.0,0000.0,0002.86,0001.20,0000.67
2024-06-05 21:15:00,SystemResetWarning,0827.6,5.01,000.00,028.7,027.6,000.0,037.0,030.4,016.1,0000.0,0002.44,0001.15,0000.67
2024-06-05 21:16:00,SystemResetWarning,0827.6,4.99,000.00,028.7,027.9,000.0,037.0,030.5,016.1,0000.0,0002.92,0001.12,0000.67
2024-06-05 21:17:00,SystemResetWarning,0827.6,5.00,000.00,028.8,028.2,000.0,037.0,030.7,015.9,0000.0,0002.94,0001.09,0000.67
2024-06-05 21:18:00,SystemResetWarning,0827.6,5.00,000.00,028.9,028.4,000.0,037.1,030.8,015.6,0000.0,0003.27,0001.05,0000.66
2024-06-05 21:19:00,SystemResetWarning,0827.5,5.00,000.00,029.0,028.6,000.0,037.1,030.9,015.4,0000.0,0004.96,0001.01,0000.66
2024-06-05 21:20:00,SystemResetWarning,0827.5,5.00,000.00,029.1,028.8,000.0,037.1,031.0,015.5,0000.0,0005.36,0001.03,0000.65
2024-06-05 21:21:00,SystemResetWarning,0827.5,5.00,000.00,029.2,029.0,000.0,037.2,031.1,015.5,0000.0,0006.26,0001.04,0000.65
2024-06-05 21:22:00,SystemResetWarning,0827.5,4.99,000.00,029.3,028.8,000.0,037.2,031.0,016.1,0000.0,0006.81,0001.04,0000.65
2024-06-05 21:23:00,SystemResetWarning,0827.6,4.99,000.00,029.0,026.7,000.0,037.3,030.0,015.9,0000.0,0007.02,0001.08,0000.66
2024-06-05 21:24:00,SystemResetWarning,0827.4,5.02,000.00,028.7,025.7,000.0,037.3,029.5,016.7,0000.0,0007.30,0001.14,0000.66
2024-06-05 21:25:00,SystemResetWarning,0827.4,4.99,000.00,028.6,026.3,000.0,037.3,029.7,017.2,0000.0,0007.78,0001.16,0000.66
2024-06-05 21:26:00,SystemResetWarning,0827.4,4.99,000.00,028.6,026.7,000.0,037.2,030.0,016.3,0000.0,0008.16,0001.19,0000.65
2024-06-05 21:27:00,SystemResetWarning,0827.6,5.00,000.00,028.7,027.2,000.0,037.1,030.2,015.9,0000.0,0008.06,0001.23,0000.65
2024-06-05 21:28:00,SystemResetWarning,0827.5,5.01,000.00,028.8,027.6,000.0,037.1,030.4,015.7,0000.0,0008.13,0001.28,0000.66
2024-06-05 21:29:00,SystemResetWarning,0827.4,5.00,000.00,028.8,028.0,000.0,037.1,030.6,016.0,0000.0,0008.03,0001.29,0000.66
2024-06-05 21:30:00,SystemResetWarning,0827.8,5.00,000.00,028.9,028.2,000.0,037.1,030.7,015.7,0000.0,0007.48,0001.25,0000.65
2024-06-05 21:31:00,SystemResetWarning,0827.6,5.00,000.00,029.0,028.5,000.0,037.1,030.8,016.3,0000.0,0007.64,0001.25,0000.64
2024-06-05 21:32:00,SystemResetWarning,0827.6,5.00,000.00,029.1,028.7,000.0,037.2,030.9,015.6,0000.0,0007.05,0001.27,0000.65
2024-06-05 21:33:00,SystemResetWarning,0827.6,5.00,000.00,029.2,028.9,000.0,037.2,031.1,015.8,0000.0,0006.50,0001.24,0000.65
2024-06-05 21:34:00,SystemResetWarning,0827.4,4.98,000.00,029.2,028.2,000.0,037.3,030.7,016.1,0000.0,0006.34,0001.20,0000.64
2024-06-05 21:35:00,SystemResetWarning,0827.4,5.00,000.00,028.9,026.0,000.0,037.3,029.7,016.4,0000.0,0006.17,0001.21,0000.64
2024-06-05 21:36:00,SystemResetWarning,0827.4,5.02,000.00,028.6,025.7,000.0,037.3,029.4,016.7,0000.0,0005.53,0001.25,0000.65
2024-06-05 21:37:00,SystemResetWarning,0827.4,5.00,000.00,028.5,026.2,000.0,037.2,029.7,016.7,0000.0,0005.20,0001.26,0000.66
2024-06-05 21:38:00,SystemResetWarning,0827.4,5.00,000.00,028.6,026.7,000.0,037.1,030.0,016.2,0000.0,0005.06,0001.24,0000.65
2024-06-05 21:39:00,SystemResetWarning,0827.4,5.00,000.00,028.6,027.2,000.0,037.1,030.2,016.1,0000.0,0004.95,0001.21,0000.65
2024-06-05 21:40:00,SystemResetWarning,0827.4,5.01,000.00,028.7,027.6,000.0,037.1,030.4,017.1,0000.0,0004.89,0001.20,0000.64
2024-06-05 21:41:00,SystemResetWarning,0827.4,4.99,000.00,028.8,027.9,000.0,037.0,030.5,016.3,0000.0,0004.38,0001.22,0000.65
2024-06-05 21:42:00,SystemResetWarning,0827.4,4.99,000.00,028.9,028.2,000.0,037.1,030.7,016.8,0000.0,0004.30,0001.28,0000.66
2024-06-05 21:43:00,SystemResetWarning,0827.4,5.00,000.00,029.0,028.5,000.0,037.1,030.8,016.3,0000.0,0004.92,0001.27,0000.66
2024-06-05 21:44:00,SystemResetWarning,0827.4,5.00,000.00,029.0,028.7,000.0,037.1,030.9,016.1,0000.0,0005.18,0001.30,0000.67
2024-06-05 21:45:00,SystemResetWarning,0827.4,5.00,000.00,029.1,028.9,000.0,037.2,031.0,016.2,0000.0,0005.32,0001.32,0000.68
2024-06-05 21:46:00,SystemResetWarning,0827.4,4.99,000.00,029.2,028.6,000.0,037.2,030.9,016.1,0000.0,0005.74,0001.31,0000.68
2024-06-05 21:47:00,SystemResetWarning,0827.3,5.00,000.00,029.0,026.5,000.0,037.3,029.9,016.2,0000.0,0005.64,0001.25,0000.67
2024-06-05 21:48:00,SystemResetWarning,0827.3,5.01,000.00,028.6,025.6,000.0,037.3,029.4,016.7,0000.0,0005.59,0001.27,0000.67
2024-06-05 21:49:00,SystemResetWarning,0827.3,5.01,000.00,028.5,026.2,000.0,037.2,029.6,016.8,0000.0,0005.71,0001.29,0000.67
2024-06-05 21:50:00,SystemResetWarning,0827.3,4.99,000.00,028.6,026.6,000.0,037.1,029.9,016.8,0000.0,0005.72,0001.33,0000.67
2024-06-05 21:51:00,SystemResetWarning,0827.4,5.00,000.00,028.6,027.1,000.0,037.1,030.2,016.4,0000.0,0005.87,0001.40,0000.69
2024-06-05 21:52:00,SystemResetWarning,0827.3,5.01,000.00,028.7,027.5,000.0,037.0,030.4,017.0,0000.0,0005.70,0001.42,0000.69
2024-06-05 21:53:00,SystemResetWarning,0827.3,5.01,000.00,028.8,027.9,000.0,037.0,030.5,017.0,0000.0,0004.45,0001.34,0000.68
2024-06-05 21:54:00,SystemResetWarning,0827.3,5.00,000.00,028.9,028.2,000.0,037.1,030.7,016.6,0000.0,0003.79,0001.32,0000.68
2024-06-05 21:55:00,SystemResetWarning,0827.3,4.99,000.00,029.0,028.5,000.0,037.1,030.8,016.3,0000.0,0003.52,0001.31,0000.67
2024-06-05 21:56:00,SystemResetWarning,0827.3,4.99,000.00,029.1,028.7,000.0,037.1,030.9,016.7,0000.0,0003.60,0001.32,0000.67
2024-06-05 21:57:00,SystemResetWarning,0827.4,5.00,000.00,029.1,028.9,000.0,037.2,031.1,016.3,0000.0,0003.57,0001.35,0000.68
2024-06-05 21:58:00,SystemResetWarning,0827.4,5.00,000.00,029.2,028.9,000.0,037.2,031.1,016.7,0000.0,0003.97,0001.38,0000.68
2024-06-05 21:59:00,SystemResetWarning,0827.4,5.00,000.00,029.1,027.2,000.0,037.3,030.2,016.9,0000.0,0003.75,0001.33,0000.67
